sat.trackr.live / text

‹ back to catalog

STARLINK-34451

NORAD 64433 · 2025-129X

PAYLOAD ACTIVE UNKNOWN

§ Identity

Operator
Country
US
Launch date
2025-06-17
Launch site
AFWTR
Launch vehicle
Mass (kg)
RCS (m²)

Purposes: comms

External: N2YO · Heavens-Above · Gunter

§ Orbital elements

Epoch: 2026-09-20T11:56:58.166880Z

Period
94.14 min
Inclination
70.0011°
Eccentricity
0.0003664
Mean motion
15.29584401 rev/d
Perigee alt
474.5 km
Apogee alt
479.6 km
Semi-major
6,855.2 km
B*
2.0875e-4
RAAN
301.0411°
Arg perigee
270.8626°
Mean anomaly
89.2130°
Rev number
7,046

§ Raw data

STARLINK-344511 64433U 25129X   26263.49789545  .00005879  00000+0  20875-3 0  99922 64433  70.0011 301.0411 0003664 270.8626  89.2130 15.29584401 70460

JSON: /api/v1/satellites/64433 · /tle

For live sub-satellite position, see the globe view (requires WebGL).

§ Visibility from observer

Set your observer location to see the next 7 days of passes ≥ 10°. The values pass through the URL so the page stays shareable.

No JS? Fill the form by hand. The geolocation button needs JavaScript.